This is the latest recevied weather packets stored in our database for station/object KE1THD. If no packets are shown the sender has not sent any weather packets the latest 10 day(s).
| Time | Temp. | Humidity | Pressure | Rain* | Wind** | Luminosity | Snow |
|---|---|---|---|---|---|---|---|
| 1777810501 | 10° C | 59% | 1013.7 hPa | 0 mm | - | 23 W/m² | - |
| 1777810196 | 10° C | 59% | 1014 hPa | 0 mm | - | 12 W/m² | - |
| 1777809893 | 10° C | 60% | 1013.7 hPa | 0 mm | - | 6 W/m² | - |
| 1777809592 | 10° C | 59% | 1013.9 hPa | 0 mm | - | 5 W/m² | - |
| 1777809289 | 10° C | 59% | 1014.1 hPa | 0 mm | - | 7 W/m² | - |
| 1777808986 | 10° C | 59% | 1014.1 hPa | 0 mm | - | 5 W/m² | - |
| 1777808684 | 10° C | 59% | 1014.3 hPa | 0 mm | - | 2 W/m² | - |
| 1777808380 | 10.56° C | 58% | 1014.2 hPa | 0 mm | - | 2 W/m² | - |
| 1777808078 | 10.56° C | 58% | 1014.1 hPa | 0 mm | - | 3 W/m² | - |
| 1777807776 | 10.56° C | 57% | 1014 hPa | 0 mm | - | 7 W/m² | - |
| 1777807474 | 10.56° C | 56% | 1013.9 hPa | 0 mm | - | 7 W/m² | - |
| 1777807169 | 10.56° C | 56% | 1013.8 hPa | 0 mm | - | 5 W/m² | - |
| 1777806867 | 10.56° C | 56% | 1013.5 hPa | 0 mm | - | 3 W/m² | - |
| 1777806563 | 10.56° C | 56% | 1013.8 hPa | 0 mm | - | 3 W/m² | - |
| 1777806259 | 10.56° C | 56% | 1013.5 hPa | 0 mm | - | 2 W/m² | - |
| 1777805955 | 10.56° C | 56% | 1013.8 hPa | 0 mm | - | 0 W/m² | - |
| 1777805652 | 10.56° C | 56% | 1013.6 hPa | 0 mm | - | 0 W/m² | - |
| 1777805350 | 10.56° C | 56% | 1013.9 hPa | 0 mm | - | 0 W/m² | - |
| 1777805048 | 10.56° C | 56% | 1013.7 hPa | 0 mm | - | 0 W/m² | - |
| 1777804745 | 10.56° C | 57% | 1013.8 hPa | 0 mm | - | 0 W/m² | - |
| 1777804443 | 10.56° C | 57% | 1013.8 hPa | 0 mm | - | 0 W/m² | - |
| 1777804140 | 10.56° C | 56% | 1013.8 hPa | 0 mm | - | 0 W/m² | - |
| 1777803836 | 10° C | 56% | 1014 hPa | 0 mm | - | 0 W/m² | - |
| 1777803532 | 10° C | 57% | 1013.9 hPa | 0 mm | - | 0 W/m² | - |
| 1777803230 | 10° C | 57% | 1014 hPa | 0 mm | - | 0 W/m² | - |
* Rain latest hour (hover to see other rain measurements)
** Current wind speed in m/s (hover to see current wind gust speed)